SL-8 DEB, 2334

Orbit data source: Space-Track

SL-8 DEB, 2334 is space debris in LEO originally from a launch on Mon, 15 Mar 1965 UTC launched from the Tyuratam Missile And Space Complex (TTMTR). Debris objects in space refer to the collection of defunct objects orbiting the Earth. Examples of debris include non-operational satellites, rocket bodies, and fragments generated from explosions, collisions, or faulty payload assembly.

Loading next visibility...
Identifier
2334, 1965-020EH
Orbit
LEO
Last TLE update
18 hours ago
Origin
Manufacturer
Unknown
Mission
Spacecraft
Bus & Motor
Unknown
Mass
Unknown
Launch date (UTC)
1965-03-15 (60 years ago)
Launch vehicle
Unknown
Launch site
Tyuratam Missile And Space Complex (TTMTR)
Object type
Payload
Rocket body
Debris
Shape & HBR
Unknown
Radar Cross Section
Small (<0.1 m²)

Expand to show TLE details & history

TLE from 18 hours ago
0 SL-8 DEB
1 02334U 65020EH  25198.56137483  .00000143  00000-0  30527-3 0  9995
2 02334  55.6730 271.9026 0584655 201.5123 156.0292 13.11863196807025
Epoch: 2025-07-17T13:28Z
TLE epoch observation values (Epoch: 2025-07-17T13:28:22.785Z)
Latitude
-0.00007°
Longitude
134.1822°
Altitude
1,626.673 km
Speed
6.866 km/s
True Right ascension
18h 07m 36s
True Declination
0° 00' 00"
Sunlit
Object was in full shadow at epoch
Visualization orbit readout
Latitude
-0.31393°
Longitude
131.62874°
Altitude
1,621.494 km
Speed
6.871 km/s
Apparent Right ascension
15h 32m 47s
Apparent Declination
-38° 38' 55"
Sunlit
Object is in full shadow
Visualization observer readout
Local Sidereal Time
20:30:32
Azimuth
230.808° WSW
Elevation
-13.89°
Doppler factor
1
Orbital elements
Apogee altitude
1,659.816 km
Perigee altitude
771.846 km
Semi-major axis
7,593.968 km
Eccentricity
0.05847
Inclination
55.673°
RAAN
271.9026°
Arg. of periapsis
201.5123°
True anomaly
158.57947°
Mean anomaly
156.0292°
Eccentric anomaly
157.3208°
Mean motion
3.27974 °/min
Orbital period
109.76 mins
BSTAR
0.00030527
Loading maneuver chart data...
Loading SW <> Apogee altitude chart data...
Loading historical data...
Loading historical data...
Loading historical data...
Loading historical data...
Loading historical data...
Loading historical data...
Loading historical data...
|